Time,TemperatureF,DewpointF,PressureIn,WindDirection,WindDirectionDegrees,WindSpeedMPH,WindSpeedGustMPH,Humidity,HourlyPrecipIn,Conditions,Clouds,dailyrainin,SoftwareType,DateUTC
2013-05-01 00:03:00,64.0,57.0,29.95,South,179,0.0,3.0,77,0.00,,,0.25,,2013-05-01 04:03:00,
2013-05-01 00:12:00,64.0,57.0,29.95,South,179,0.0,3.0,77,0.00,,,0.25,,2013-05-01 04:12:00,
2013-05-01 00:22:00,63.0,56.0,29.96,SSE,161,0.0,3.0,78,0.00,,,0.25,,2013-05-01 04:22:00,
2013-05-01 00:32:00,63.0,56.0,29.96,South,180,0.0,4.0,78,0.00,,,0.25,,2013-05-01 04:32:00,
2013-05-01 00:43:00,63.0,56.0,29.96,South,180,0.0,4.0,78,0.00,,,0.25,,2013-05-01 04:43:00,
2013-05-01 00:52:00,63.0,56.0,29.96,ESE,103,0.0,4.0,78,0.00,,,0.25,,2013-05-01 04:52:00,
2013-05-01 01:02:00,63.0,56.0,29.96,South,184,0.0,3.0,78,0.00,,,0.25,,2013-05-01 05:02:00,
2013-05-01 01:11:00,63.0,56.0,29.96,South,184,0.0,3.0,78,0.00,,,0.25,,2013-05-01 05:11:00,
2013-05-01 01:22:00,63.0,56.0,29.97,East,101,0.0,5.0,78,0.00,,,0.25,,2013-05-01 05:22:00,
2013-05-01 01:32:00,63.0,56.0,29.97,SE,135,0.0,4.0,78,0.00,,,0.25,,2013-05-01 05:32:00,
2013-05-01 01:42:00,63.0,56.0,29.97,SE,135,0.0,4.0,78,0.00,,,0.25,,2013-05-01 05:42:00,
2013-05-01 01:52:00,63.0,56.0,29.97,SE,138,0.0,2.0,78,0.00,,,0.25,,2013-05-01 05:52:00,
2013-05-01 02:02:00,63.0,56.0,29.97,South,191,0.0,3.0,79,0.00,,,0.25,,2013-05-01 06:02:00,
2013-05-01 02:12:00,63.0,56.0,29.97,South,191,0.0,3.0,79,0.00,,,0.25,,2013-05-01 06:12:00,
2013-05-01 02:22:00,63.0,56.0,29.97,South,188,0.0,2.0,79,0.00,,,0.25,,2013-05-01 06:22:00,
2013-05-01 02:32:00,62.0,56.0,29.98,SSW,195,0.0,0.0,80,0.00,,,0.25,,2013-05-01 06:32:00,
2013-05-01 02:42:00,62.0,56.0,29.98,SSW,195,0.0,0.0,80,0.00,,,0.25,,2013-05-01 06:42:00,
2013-05-01 02:52:00,62.0,56.0,29.98,SSW,199,0.0,0.0,80,0.00,,,0.25,,2013-05-01 06:52:00,
2013-05-01 03:01:00,62.0,56.0,29.98,South,190,0.0,0.0,81,0.00,,,0.25,,2013-05-01 07:01:00,
2013-05-01 03:11:00,62.0,56.0,29.98,South,190,0.0,0.0,81,0.00,,,0.25,,2013-05-01 07:11:00,
2013-05-01 03:21:00,61.0,55.0,29.98,South,190,0.0,0.0,82,0.00,,,0.25,,2013-05-01 07:21:00,
2013-05-01 03:32:00,59.0,55.0,29.99,South,190,0.0,1.0,86,0.00,,,0.25,,2013-05-01 07:32:00,
2013-05-01 03:42:00,59.0,55.0,29.99,South,190,0.0,1.0,86,0.00,,,0.25,,2013-05-01 07:42:00,
2013-05-01 03:52:00,58.0,54.0,30.00,South,190,0.0,0.0,87,0.00,,,0.25,,2013-05-01 07:52:00,
2013-05-01 04:02:00,58.0,54.0,30.00,South,190,0.0,0.0,88,0.00,,,0.25,,2013-05-01 08:02:00,
2013-05-01 04:12:00,58.0,54.0,30.00,South,190,0.0,0.0,88,0.00,,,0.25,,2013-05-01 08:12:00,
2013-05-01 04:22:00,58.0,55.0,30.01,South,190,0.0,0.0,89,0.00,,,0.25,,2013-05-01 08:22:00,
2013-05-01 04:32:00,57.0,54.0,30.01,South,190,0.0,0.0,89,0.00,,,0.25,,2013-05-01 08:32:00,
2013-05-01 04:42:00,57.0,54.0,30.01,South,190,0.0,0.0,89,0.00,,,0.25,,2013-05-01 08:42:00,
2013-05-01 04:53:00,57.0,54.0,30.01,South,190,0.0,0.0,89,0.00,,,0.25,,2013-05-01 08:53:00,
2013-05-01 05:01:00,56.0,53.0,30.01,South,190,0.0,0.0,90,0.00,,,0.25,,2013-05-01 09:01:00,
2013-05-01 05:12:00,56.0,53.0,30.01,South,190,0.0,0.0,90,0.00,,,0.25,,2013-05-01 09:12:00,
2013-05-01 05:21:00,56.0,53.0,30.01,South,190,0.0,0.0,90,0.00,,,0.25,,2013-05-01 09:21:00,
2013-05-01 05:33:00,55.0,52.0,30.01,South,190,0.0,0.0,91,0.00,,,0.25,,2013-05-01 09:33:00,
2013-05-01 05:43:00,55.0,52.0,30.01,South,190,0.0,0.0,91,0.00,,,0.25,,2013-05-01 09:43:00,
2013-05-01 05:53:00,55.0,52.0,30.02,South,190,0.0,0.0,91,0.00,,,0.25,,2013-05-01 09:53:00,
2013-05-01 06:03:00,55.0,52.0,30.02,South,190,0.0,0.0,91,0.00,,,0.25,,2013-05-01 10:03:00,
2013-05-01 06:12:00,55.0,52.0,30.02,South,190,0.0,0.0,91,0.00,,,0.25,,2013-05-01 10:12:00,
2013-05-01 06:22:00,54.0,52.0,30.02,South,190,0.0,0.0,92,0.00,,,0.25,,2013-05-01 10:22:00,
2013-05-01 06:33:00,54.0,52.0,30.03,South,190,0.0,0.0,92,0.00,,,0.25,,2013-05-01 10:33:00,
2013-05-01 06:42:00,54.0,52.0,30.03,South,190,0.0,0.0,92,0.00,,,0.25,,2013-05-01 10:42:00,
2013-05-01 06:52:00,54.0,52.0,30.03,South,190,0.0,0.0,92,0.00,,,0.25,,2013-05-01 10:52:00,
2013-05-01 07:03:00,55.0,53.0,30.04,SSE,167,0.0,3.0,93,0.00,,,0.25,,2013-05-01 11:03:00,
2013-05-01 07:11:00,55.0,53.0,30.04,SSE,167,0.0,3.0,93,0.00,,,0.25,,2013-05-01 11:11:00,
2013-05-01 07:22:00,56.0,54.0,30.05,SSE,167,0.0,2.0,92,0.00,,,0.25,,2013-05-01 11:22:00,
2013-05-01 07:32:00,56.0,54.0,30.06,SSE,168,0.0,1.0,92,0.00,,,0.25,,2013-05-01 11:32:00,
2013-05-01 07:42:00,56.0,54.0,30.06,SSE,168,0.0,1.0,92,0.00,,,0.25,,2013-05-01 11:42:00,
2013-05-01 07:52:00,58.0,55.0,30.06,SSE,162,0.0,3.0,90,0.00,,,0.25,,2013-05-01 11:52:00,
2013-05-01 08:01:00,59.0,55.0,30.07,WSW,237,0.0,2.0,87,0.00,,,0.25,,2013-05-01 12:01:00,
2013-05-01 08:11:00,60.0,56.0,30.08,ESE,115,0.0,3.0,86,0.00,,,0.25,,2013-05-01 12:11:00,
2013-05-01 08:21:00,60.0,56.0,30.08,ESE,115,0.0,3.0,86,0.00,,,0.25,,2013-05-01 12:21:00,
2013-05-01 08:32:00,60.0,55.0,30.08,South,175,0.0,0.0,85,0.00,,,0.25,,2013-05-01 12:32:00,
2013-05-01 08:42:00,60.0,55.0,30.08,South,175,0.0,0.0,85,0.00,,,0.25,,2013-05-01 12:42:00,
2013-05-01 08:52:00,62.0,57.0,30.07,South,185,0.0,2.0,83,0.00,,,0.25,,2013-05-01 12:52:00,
2013-05-01 09:01:00,64.0,57.0,30.08,SSE,151,0.0,2.0,78,0.00,,,0.25,,2013-05-01 13:01:00,
2013-05-01 09:11:00,64.0,57.0,30.08,SSE,151,0.0,2.0,78,0.00,,,0.25,,2013-05-01 13:11:00,
2013-05-01 09:22:00,66.0,58.0,30.08,SSE,148,0.0,4.0,75,0.00,,,0.24,,2013-05-01 13:22:00,
2013-05-01 09:32:00,67.0,58.0,30.08,SSE,165,0.0,6.0,72,0.00,,,0.24,,2013-05-01 13:32:00,
2013-05-01 09:42:00,67.0,58.0,30.08,SSE,165,0.0,6.0,72,0.00,,,0.24,,2013-05-01 13:42:00,
2013-05-01 09:52:00,69.0,59.0,30.09,South,187,0.0,6.0,70,0.00,,,0.24,,2013-05-01 13:52:00,
2013-05-01 10:02:00,70.0,59.0,30.08,SSW,206,0.0,4.0,67,0.00,,,0.22,,2013-05-01 14:02:00,
2013-05-01 10:11:00,70.0,59.0,30.08,SSW,206,0.0,4.0,67,0.00,,,0.22,,2013-05-01 14:11:00,
2013-05-01 10:22:00,71.0,59.0,30.08,SW,225,0.0,3.0,66,0.00,,,0.20,,2013-05-01 14:22:00,
2013-05-01 10:32:00,73.0,61.0,30.09,SW,223,0.0,2.0,65,0.00,,,0.14,,2013-05-01 14:32:00,
2013-05-01 10:42:00,73.0,61.0,30.09,SW,223,0.0,2.0,65,0.00,,,0.14,,2013-05-01 14:42:00,
2013-05-01 10:52:00,74.0,60.0,30.09,SSE,159,0.0,5.0,62,0.00,,,0.14,,2013-05-01 14:52:00,
2013-05-01 11:01:00,75.0,60.0,30.09,SW,219,0.0,1.0,60,0.00,,,0.08,,2013-05-01 15:01:00,
2013-05-01 11:11:00,75.0,60.0,30.09,SW,219,0.0,1.0,60,0.00,,,0.08,,2013-05-01 15:11:00,
2013-05-01 11:21:00,76.0,60.0,30.09,SE,146,0.0,7.0,58,0.00,,,0.07,,2013-05-01 15:21:00,
2013-05-01 11:33:00,77.0,61.0,30.09,SSW,209,0.0,6.0,58,0.00,,,0.07,,2013-05-01 15:33:00,
2013-05-01 11:43:00,77.0,61.0,30.09,SSW,209,0.0,6.0,58,0.00,,,0.07,,2013-05-01 15:43:00,
2013-05-01 11:53:00,78.0,62.0,30.09,SSE,150,3.0,9.0,57,0.00,,,0.07,,2013-05-01 15:53:00,
2013-05-01 12:03:00,78.0,62.0,30.09,SSE,150,3.0,9.0,57,0.00,,,0.07,,2013-05-01 16:03:00,
2013-05-01 12:12:00,78.0,62.0,30.09,SSE,150,3.0,9.0,57,0.00,,,0.07,,2013-05-01 16:12:00,
2013-05-01 12:22:00,78.0,62.0,30.09,SSE,150,3.0,9.0,57,0.00,,,0.07,,2013-05-01 16:22:00,
2013-05-01 12:32:00,79.0,61.0,30.09,SE,135,0.0,8.0,55,0.00,,,0.03,,2013-05-01 16:32:00,
2013-05-01 12:42:00,79.0,61.0,30.09,SE,135,0.0,8.0,55,0.00,,,0.03,,2013-05-01 16:42:00,
2013-05-01 12:53:00,80.0,62.0,30.09,SSE,150,2.0,11.0,54,0.00,,,0.02,,2013-05-01 16:53:00,
2013-05-01 13:02:00,80.0,61.0,30.09,West,261,4.0,7.0,53,0.00,,,0.01,,2013-05-01 17:02:00,
2013-05-01 13:12:00,80.0,61.0,30.09,West,261,4.0,7.0,53,0.00,,,0.01,,2013-05-01 17:12:00,
2013-05-01 13:22:00,81.0,63.0,30.09,SW,226,5.0,6.0,55,0.00,,,0.00,,2013-05-01 17:22:00,
2013-05-01 13:32:00,81.0,62.0,30.09,SE,126,0.0,4.0,52,0.00,,,0.00,,2013-05-01 17:32:00,
2013-05-01 13:42:00,81.0,62.0,30.09,SE,126,0.0,4.0,52,0.00,,,0.00,,2013-05-01 17:42:00,
2013-05-01 13:52:00,81.0,62.0,30.09,SSW,202,1.0,7.0,52,0.00,,,0.00,,2013-05-01 17:52:00,
2013-05-01 14:02:00,82.0,63.0,30.09,WSW,253,4.0,6.0,52,0.00,,,0.00,,2013-05-01 18:02:00,
2013-05-01 14:11:00,82.0,63.0,30.09,WSW,253,4.0,6.0,52,0.00,,,0.00,,2013-05-01 18:11:00,
2013-05-01 14:22:00,82.0,62.0,30.09,WSW,244,4.0,6.0,51,0.00,,,0.00,,2013-05-01 18:22:00,
2013-05-01 14:32:00,82.0,62.0,30.09,ESE,117,2.0,7.0,51,0.00,,,0.00,,2013-05-01 18:32:00,
2013-05-01 14:42:00,82.0,62.0,30.09,ESE,117,2.0,7.0,51,0.00,,,0.00,,2013-05-01 18:42:00,
2013-05-01 14:52:00,83.0,62.0,30.09,SSE,156,4.0,6.0,49,0.00,,,0.00,,2013-05-01 18:52:00,
2013-05-01 15:02:00,83.0,62.0,30.09,SSE,156,4.0,6.0,49,0.00,,,0.00,,2013-05-01 19:02:00,
2013-05-01 15:11:00,83.0,62.0,30.09,SSE,156,4.0,6.0,49,0.00,,,0.00,,2013-05-01 19:11:00,
2013-05-01 15:22:00,84.0,62.0,30.09,SW,215,4.0,8.0,48,0.00,,,0.00,,2013-05-01 19:22:00,
2013-05-01 15:32:00,84.0,63.0,30.09,SSW,202,1.0,7.0,49,0.00,,,0.00,,2013-05-01 19:32:00,
2013-05-01 15:43:00,84.0,63.0,30.09,SSW,202,1.0,7.0,49,0.00,,,0.00,,2013-05-01 19:43:00,
2013-05-01 15:52:00,84.0,61.0,30.09,SE,138,1.0,7.0,46,0.00,,,0.00,,2013-05-01 19:52:00,
2013-05-01 16:02:00,84.0,62.0,30.09,SSE,153,0.0,9.0,47,0.00,,,0.00,,2013-05-01 20:02:00,
2013-05-01 16:11:00,84.0,62.0,30.09,SSE,153,0.0,9.0,47,0.00,,,0.00,,2013-05-01 20:11:00,
2013-05-01 16:22:00,85.0,61.0,30.09,SE,146,3.0,10.0,44,0.00,,,0.00,,2013-05-01 20:22:00,
2013-05-01 16:32:00,85.0,62.0,30.09,SSE,155,0.0,10.0,46,0.00,,,0.00,,2013-05-01 20:32:00,
2013-05-01 16:42:00,85.0,62.0,30.09,SSE,155,0.0,10.0,46,0.00,,,0.00,,2013-05-01 20:42:00,
2013-05-01 16:52:00,84.0,59.0,30.09,SE,134,5.0,11.0,43,0.00,,,0.00,,2013-05-01 20:52:00,
2013-05-01 17:01:00,85.0,59.0,30.09,SE,140,0.0,11.0,42,0.00,,,0.00,,2013-05-01 21:01:00,
2013-05-01 17:11:00,85.0,59.0,30.09,SE,140,0.0,11.0,42,0.00,,,0.00,,2013-05-01 21:11:00,
2013-05-01 17:22:00,85.0,59.0,30.09,SE,132,9.0,15.0,41,0.00,,,0.00,,2013-05-01 21:22:00,
2013-05-01 17:32:00,85.0,58.0,30.09,South,173,3.0,15.0,40,0.00,,,0.00,,2013-05-01 21:32:00,
2013-05-01 17:43:00,85.0,58.0,30.09,South,173,3.0,15.0,40,0.00,,,0.00,,2013-05-01 21:43:00,
2013-05-01 17:53:00,84.0,57.0,30.09,ESE,122,2.0,7.0,40,0.00,,,0.00,,2013-05-01 21:53:00,
2013-05-01 18:03:00,84.0,57.0,30.10,South,187,3.0,7.0,40,0.00,,,0.00,,2013-05-01 22:03:00,
2013-05-01 18:12:00,84.0,57.0,30.10,South,187,3.0,7.0,40,0.00,,,0.00,,2013-05-01 22:12:00,
2013-05-01 18:23:00,84.0,57.0,30.10,SSW,200,1.0,9.0,40,0.00,,,0.00,,2013-05-01 22:23:00,
2013-05-01 18:33:00,84.0,57.0,30.10,South,180,3.0,9.0,40,0.00,,,0.00,,2013-05-01 22:33:00,
2013-05-01 18:42:00,84.0,57.0,30.10,South,180,3.0,9.0,40,0.00,,,0.00,,2013-05-01 22:42:00,
2013-05-01 18:53:00,83.0,58.0,30.11,South,190,2.0,10.0,43,0.00,,,0.00,,2013-05-01 22:53:00,
2013-05-01 19:02:00,83.0,59.0,30.10,SSE,147,4.0,10.0,45,0.00,,,0.00,,2013-05-01 23:02:00,
2013-05-01 19:12:00,83.0,59.0,30.10,SSE,147,4.0,10.0,45,0.00,,,0.00,,2013-05-01 23:12:00,
2013-05-01 19:21:00,83.0,59.0,30.10,South,177,1.0,5.0,45,0.00,,,0.00,,2013-05-01 23:21:00,
2013-05-01 19:32:00,82.0,59.0,30.10,SSW,200,1.0,7.0,45,0.00,,,0.00,,2013-05-01 23:32:00,
2013-05-01 19:42:00,82.0,59.0,30.10,SSW,200,1.0,7.0,45,0.00,,,0.00,,2013-05-01 23:42:00,
2013-05-01 19:52:00,81.0,58.0,30.11,South,187,5.0,5.0,46,0.00,,,0.00,,2013-05-01 23:52:00,
2013-05-01 20:01:00,81.0,59.0,30.11,South,172,3.0,5.0,47,0.00,,,0.00,,2013-05-02 00:01:00,
2013-05-01 20:11:00,81.0,59.0,30.11,South,172,3.0,5.0,47,0.00,,,0.00,,2013-05-02 00:11:00,
2013-05-01 20:21:00,81.0,59.0,30.11,South,172,3.0,5.0,47,0.00,,,0.00,,2013-05-02 00:21:00,
2013-05-01 20:32:00,79.0,60.0,30.12,SSW,195,0.0,5.0,52,0.00,,,0.00,,2013-05-02 00:32:00,
2013-05-01 20:42:00,79.0,60.0,30.12,SSW,195,0.0,5.0,52,0.00,,,0.00,,2013-05-02 00:42:00,
2013-05-01 20:52:00,77.0,59.0,30.12,SSE,151,3.0,5.0,53,0.00,,,0.00,,2013-05-02 00:52:00,
2013-05-01 21:01:00,76.0,58.0,30.13,South,180,2.0,5.0,54,0.00,,,0.00,,2013-05-02 01:01:00,
2013-05-01 21:11:00,76.0,58.0,30.13,South,180,2.0,5.0,54,0.00,,,0.00,,2013-05-02 01:11:00,
2013-05-01 21:22:00,76.0,59.0,30.13,SE,138,0.0,4.0,55,0.00,,,0.00,,2013-05-02 01:22:00,
2013-05-01 21:32:00,75.0,59.0,30.14,ESE,123,0.0,2.0,57,0.00,,,0.00,,2013-05-02 01:32:00,
2013-05-01 21:42:00,75.0,59.0,30.14,ESE,123,0.0,2.0,57,0.00,,,0.00,,2013-05-02 01:42:00,
2013-05-01 21:52:00,74.0,58.0,30.14,SE,125,0.0,0.0,58,0.00,,,0.00,,2013-05-02 01:52:00,
2013-05-01 22:02:00,73.0,58.0,30.14,SE,124,0.0,0.0,60,0.00,,,0.00,,2013-05-02 02:02:00,
2013-05-01 22:12:00,73.0,58.0,30.14,SE,124,0.0,0.0,60,0.00,,,0.00,,2013-05-02 02:12:00,
2013-05-01 22:21:00,71.0,57.0,30.15,SE,124,0.0,2.0,62,0.00,,,0.00,,2013-05-02 02:21:00,
2013-05-01 22:32:00,71.0,57.0,30.15,ESE,114,0.0,2.0,61,0.00,,,0.00,,2013-05-02 02:32:00,
2013-05-01 22:42:00,71.0,57.0,30.15,ESE,114,0.0,2.0,61,0.00,,,0.00,,2013-05-02 02:42:00,
2013-05-01 22:51:00,71.0,57.0,30.15,ESE,114,0.0,2.0,61,0.00,,,0.00,,2013-05-02 02:51:00,
2013-05-01 23:01:00,71.0,57.0,30.16,SSE,167,1.0,4.0,61,0.00,,,0.00,,2013-05-02 03:01:00,
2013-05-01 23:11:00,71.0,57.0,30.16,SSE,167,1.0,4.0,61,0.00,,,0.00,,2013-05-02 03:11:00,
2013-05-01 23:22:00,70.0,57.0,30.16,SSE,166,0.0,0.0,63,0.00,,,0.00,,2013-05-02 03:22:00,
2013-05-01 23:33:00,70.0,57.0,30.16,SSE,166,0.0,0.0,63,0.00,,,0.00,,2013-05-02 03:33:00,
2013-05-01 23:43:00,70.0,57.0,30.16,SSE,166,0.0,0.0,63,0.00,,,0.00,,2013-05-02 03:43:00,
2013-05-01 23:53:00,67.0,56.0,30.16,SSE,165,0.0,1.0,69,0.00,,,0.00,,2013-05-02 03:53:00,